Location: Ladrillo (historical)
(32.8195°N, 117.2231°W)
Time: 23:27:23
(UTC+00:00)

Altair - Pass Details

Date: 27 February 2021
Orbit: 1501 x 1683 km, 47.2° (Epoch: 16 April)

Event Time Altitude Azimuth Distance (km) Brightness Sun altitude
Exits shadow 11:22:02 31° 170° (S) 2,633 8.6 -37.6°
Drops below altitude 10° 11:26:51 10° 155° (SSE) 3,930 9.7 -36.6°
Sets 11:30:09 0° 150° (SSE) 4,921 10.3 -36.0°
